Regional Weather Roundup
Issued by NWS

Home | Current Version | Previous Version | Text Only | Print | Product List | Glossary On
Versions: 1 2 3 4 5 6 7 8 9 10 11 12 13 14 15 16 17 18 19 20 21 22 23 24 25 26 27 28 29 30 31 32 33 34 35 36 37 38 39 40 41 42 43 44 45 46 47 48 49 50
006
ASUS46 KLOX 041613
RWRCA

SOUTHERN CALIFORNIA WEATHER ROUNDUP
NATIONAL WEATHER SERVICE OXNARD CALIFORNIA
900 AM PDT WED MAY 04 2016

NOTE: "FAIR" INDICATES FEW OR NO CLOUDS BELOW 12,000 FEET WITH NO
SIGNIFICANT WEATHER AND/OR OBSTRUCTIONS TO VISIBILITY.

  -  STATIONS PRECEEDED BY AN ASTERISK (*) ARE NOT NWS OR FAA
     STATIONS AND ARE NOT SUBJECT TO NWS AND FAA QUALITY CONTROL.

CAZ041-042-087-041700-
LA AND ORANGE COUNTY COASTAL AREAS


CITY           SKY/WX    TMP DP  RH WIND       PRES   REMARKS
L.A. DOWNTOWN  CLOUDY    60  55  83 CALM      29.97R HAZE
L.A. AIRPORT   CLOUDY    59  54  83 W7        29.97S FOG
LONG BEACH     CLOUDY    60  55  83 W7        29.97R

CITY           SKY/WX    TMP DP  RH WIND       PRES   REMARKS
AVALON           N/A     55 N/A N/A E5          N/A
FULLERTON      CLOUDY    61  55  81 SW5       29.97R
*GETTY CENTER    N/A     52  52 100 S6          N/A
HAWTHORNE      CLOUDY    59  53  80 SW7       29.98R
*LEO CARRILLO    N/A     57  55  91 S3          N/A
*LOS ALAMITOS  FAIR      61  55  80 SW3       29.97R
*REDONDO BEACH   N/A     59  54  84 SW2       29.97R
SANTA ANA      CLOUDY    61  54  77 SW6       29.97R
STA MONICA APT CLOUDY    57  54  89 VRB5      29.98R
TORRANCE       CLOUDY    61  55  82 VRB6      29.98R
*UCLA            N/A     55  52  88 SW6       29.94F

$$

CAZ547-548-048-041700-
LA COUNTY VALLEYS AND INLAND EMPIRE


CITY           SKY/WX    TMP DP  RH WIND       PRES   REMARKS
BURBANK        CLOUDY    58  53  84 S3        29.97R HAZE
VAN NUYS       CLOUDY    57  54  89 CALM      29.97R FOG

CITY           SKY/WX    TMP DP  RH WIND       PRES   REMARKS
CORONA AIRPORT CLOUDY    61  55  82 W5        29.96
*CHATSWORTH      N/A     57  53  86 CALM      29.96S
CHINO          CLOUDY    60  54  80 SW7       29.97R HAZE
*CLAREMONT       N/A     62  55  76 S6          N/A
MARCH AFB      SUNNY     64  56  75 E3        29.93F
*NORTHRIDGE      N/A     57  52  82 SE3         N/A
ONTARIO        PTSUNNY   60  53  77 SW7       29.95S HAZE
*PASADENA        N/A     59  55  88 CALM        N/A
POMONA         PTSUNNY   59  54  82 SW7       29.99  FOG
RIVERSIDE      PTSUNNY   59  53  80 VRB3      29.95F HAZE
SAN BERNARDINO MOSUNNY   64  54  68 CALM      29.95F HAZE
*SAN RAFAEL HI   N/A     55  55 100 SW2         N/A
*SAUGUS          N/A     58  45  60 E2          N/A
*WHITEMAN AP   NOT AVBL
*WHITTIER HILL   N/A     56  54  94 SW6         N/A
*WOODLAND HILL   N/A     57  52  82 SW3         N/A

$$

CAZ054-055-041700-
LA AND SAN BERNARDINO COUNTY MOUNTAINS


CITY           SKY/WX    TMP DP  RH WIND       PRES   REMARKS
*ACTON           N/A     67  40  37 SW6         N/A
*BIG BEAR AIRP SUNNY     54  28  37 CALM      30.12F
*BIG PINES       N/A     57  34  42 E5          N/A
SANDBERG       MOSUNNY   64  36  35 S15       30.01S

$$

CAZ028-029-059-060-099-041700-
ANTELOPE VALLEY AND SURROUNDING AREAS


CITY           SKY/WX    TMP DP  RH WIND       PRES   REMARKS
LANCASTER      SUNNY     68  36  30 CALM      29.95R
PALMDALE       SUNNY     69  37  30 E6        29.95S
*POPPY PARK      N/A     74  37  26 SE5         N/A

CITY           SKY/WX    TMP DP  RH WIND       PRES   REMARKS
29 PALMS       SUNNY     69  32  25 NW5       29.99F
BARSTOW/DAGGET SUNNY     74  37  26 W7        29.92F
BISHOP         CLOUDY    63  32  31 CALM      29.98F
CHINA LAKE     PTSUNNY   72  30  21 CALM      29.93S
EDWARDS AFB    PTSUNNY   65  34  31 NE2       29.92F
MOJAVE         SUNNY     70  32  24 NE6       29.96S
NEEDLES        SUNNY     78  41  26 CALM      29.89S
VICTORVILLE    SUNNY     72  30  21 SE9       29.96S

$$

CAZ039-040-041700-
VENTURA AND SANTA BARBARA COUNTY COAST


CITY           SKY/WX    TMP DP  RH WIND       PRES   REMARKS
CAMARILLO      CLOUDY    58  53  84 S5        29.97S HAZE
NWS OXNARD       N/A     58  53  84 CALM      29.96S
OXNARD AIRPORT CLOUDY    57  53  86 SW5       29.97S
*POINT MUGU    CLOUDY    58  52  80 W3        29.98S
SBA APT/GOLETA CLOUDY    55  54  96 CALM      29.95F FOG
*SANTA BARBARA   N/A     58  54  87 CALM      30.02F
*VENTURA         N/A     57  55  92 SE2       29.95S

$$

CAZ044-045-041700-
VENTURA COUNTY VALLEYS


CITY           SKY/WX    TMP DP  RH WIND       PRES   REMARKS
*SIMI VALLEY     N/A     54  52  92 CALM      29.94S
*WESTLAKE VILL   N/A     55  51  86 CALM      29.94F
*OJAI            N/A     54  53  94 SW3       29.92F
*FILLMORE        N/A     56  54  91 CALM      29.88S

$$

CAZ053-041700-
VENTURA COUNTY MOUNTAINS


CITY           SKY/WX    TMP DP  RH WIND       PRES   REMARKS
*LOCKWOOD VLY    N/A     61  30  31 MISG        N/A
*ROSE VALLEY     N/A     66  45  45 MISG        N/A

$$

CAZ034-035-036-041700-
CENTRAL COAST AND SANTA YNEZ VALLEY


CITY           SKY/WX    TMP DP  RH WIND       PRES   REMARKS
SAN LUIS OBISP CLOUDY    58  52  80 SE8       29.93F
SANTA MARIA    CLOUDY    56  55  97 E6        29.94F FOG

CITY           SKY/WX    TMP DP  RH WIND       PRES   REMARKS
*CAL POLY SLO    N/A     54  54 100 SE7         N/A
*LOMPOC        CLOUDY    59  52  77 SE7       29.94F
*PISMO BEACH     N/A     55  54  94 E2        29.95F
*SANTA YNEZ    CLOUDY    54  50  87 S3        29.94F

$$

CAZ037-038-051-041700-
SAN LUIS OBISPO COUNTY INTERIOR AND CUYAMA VALLEY


CITY           SKY/WX    TMP DP  RH WIND       PRES   REMARKS
*CUYAMA          N/A     57  47  70 W8        29.80F
PASO ROBLES    CLOUDY    56  50  80 S9        29.92S

$$

CAZ032-033-061-041700-
SOUTHERN DESERTS


CITY           SKY/WX    TMP DP  RH WIND       PRES   REMARKS
BLYTHE         SUNNY     81  34  18 SW3       29.85S
IMPERIAL       SUNNY     81  45  28 CALM      29.83R
PALM SPRINGS   SUNNY     82  40  22 CALM      29.86F
THERMAL        SUNNY     84  38  19 NW8       29.81F

$$

ELSEWHERE ACROSS THE WESTERN UNITED STATES AND MEXICO


CITY           SKY/WX    TMP DP  RH WIND       PRES   REMARKS
DEATH VALLEY,    N/A     82  37  20 CALM        N/A
DENVER, CO     SUNNY     64  30  27 W7        30.26F
GRAND CANYON,  SUNNY     65  30  27 MISG      30.25F
HONOLULU, HI   PTCLDY    73  66  78 NE6       30.05S
KAHULUI, MAUI  PTCLDY    72  66  83 E6        30.05R
LAKE TAHOE, CA CLOUDY    46  39  76 S3        30.05F
LAS VEGAS, NV  PTSUNNY   76  34  21 CALM      29.93S
MAMMOTH LAKES, FAIR      49  32  51 CALM      30.11F
MEXICO CITY, M SUNNY     75  45  33 E8        30.35S
PHOENIX, AZ    SUNNY     85  36  17 E8        29.91S
PORTLAND, OR   CLOUDY    55  48  77 NW9       30.03R
RENO, NV       CLOUDY    57  39  51 W5        30.00F
SALT LAKE CITY PTSUNNY   68  34  28 SE12      30.14F
SAN DIEGO, CA  CLOUDY    62  53  72 SW6       29.98R
SAN FRANCISCO, CLOUDY    56  54  93 S5        29.89S
SAN JOSE, CA   CLOUDY    59  52  77 S3        29.89S
SEATTLE, WA    CLOUDY    53  46  77 N14       30.08S
TIJUANA, MEX   CLOUDY    64  54  68 W5        29.98S FOG

$$

STATION/POSITION TIME  TEMP    WIND        PRES    VSBY  WAVE
                       AIR SEA DIR/SP/G                  HT/PER
                 (UTC) (F)     (DEG/KT/KT) (MB)    (MI)  (FT/S)
POINT ARGUELLO B NOT AVBL
WEST SANTA BARBA 1550   55 56  100/  6/ 10 1013.4F         6/13
POINT CONCEPTION NOT AVBL
EAST SANTA BARBA 1500   54 56   10/  2/  4 1015.0S
SANTA MONICA BAY 1550   56 60  250/  4/  6 1015.1S         3/14



USA.gov is the U.S. government's official web portal to all federal, state and local government web resources and services.